When you browse on this site, cookies collect data to enhance your experience and personalize the content and advertising you see.
Visit our Privacy Policy to learn more. By continuing to use the site, you agree to this use of cookies and data.
  • In United Kingdom
  • List of Countries
  • For 7 days
  • Water Temperature
  • Satellite Maps
  • Weather Map
  • Weather Widgets
  • user-avatar
    Login

    Hourly Weather Dalvarzin

    Today, 16 January, Wednesday

    Time Temperature Precipitation Wind Pressure Humidity
    00:00 +8°C° 0.1 mm 1 mps 737 mmHg 92%
    01:00 +8°C° 0.1 mm 1 mps 738 mmHg 92%
    02:00 +8°C° 0.1 mm 1 mps 738 mmHg 92%
    03:00 +8°C° 0 mm 1 mps 738 mmHg 92%
    04:00 +8°C° 0 mm 1 mps 738 mmHg 92%
    05:00 +7°C° 0 mm 1 mps 739 mmHg 93%
    06:00 +7°C° 0 mm 1 mps 739 mmHg 91%
    07:00 +6°C° 0 mm 2 mps 739 mmHg 90%
    08:00 +6°C° 0 mm 2 mps 739 mmHg 89%
    09:00 +8°C° 0 mm 2 mps 739 mmHg 82%
    10:00 +9°C° 0 mm 2 mps 739 mmHg 75%
    11:00 +12°C° 0 mm 2 mps 739 mmHg 68%
    12:00 +11°C° 0 mm 3 mps 739 mmHg 63%
    13:00 +12°C° 0 mm 3 mps 739 mmHg 59%
    14:00 +13°C° 0 mm 3 mps 739 mmHg 54%
    15:00 +12°C° 0 mm 3 mps 739 mmHg 56%
    16:00 +12°C° 0 mm 3 mps 740 mmHg 58%
    17:00 +11°C° 0 mm 3 mps 740 mmHg 60%
    18:00 +10°C° 0 mm 3 mps 740 mmHg 63%
    19:00 +10°C° 0 mm 4 mps 740 mmHg 66%
    20:00 +8°C° 0 mm 4 mps 741 mmHg 70%
    21:00 +7°C° 0 mm 5 mps 741 mmHg 71%
    22:00 +7°C° 0 mm 5 mps 741 mmHg 71%
    23:00 +7°C° 0 mm 5 mps 741 mmHg 72%

    Tomorrow, 17 January, Thursday

    Time Temperature Precipitation Wind Pressure Humidity
    00:00 +7°C° 0 mm 6 mps 741 mmHg 72%
    01:00 +5°C° 0 mm 6 mps 741 mmHg 71%
    02:00 +5°C° 0 mm 6 mps 740 mmHg 71%
    03:00 +5°C° 0 mm 6 mps 740 mmHg 71%
    04:00 +5°C° 0 mm 7 mps 740 mmHg 70%
    05:00 +5°C° 0 mm 7 mps 740 mmHg 69%
    06:00 +5°C° 0 mm 7 mps 741 mmHg 68%
    07:00 +5°C° 0 mm 7 mps 741 mmHg 66%
    08:00 +5°C° 0 mm 8 mps 741 mmHg 65%
    09:00 +6°C° 0 mm 8 mps 740 mmHg 57%
    10:00 +8°C° 0 mm 9 mps 740 mmHg 50%
    11:00 +9°C° 0 mm 10 mps 739 mmHg 43%
    12:00 +11°C° 0 mm 10 mps 739 mmHg 40%
    13:00 +11°C° 0 mm 10 mps 738 mmHg 36%
    14:00 +12°C° 0 mm 9 mps 737 mmHg 33%
    15:00 +11°C° 0 mm 9 mps 737 mmHg 34%
    16:00 +10°C° 0 mm 9 mps 737 mmHg 35%
    17:00 +10°C° 0 mm 9 mps 737 mmHg 36%
    18:00 +8°C° 0 mm 9 mps 737 mmHg 36%
    19:00 +8°C° 0 mm 9 mps 737 mmHg 37%
    20:00 +8°C° 0 mm 9 mps 737 mmHg 38%
    21:00 +7°C° 0 mm 9 mps 736 mmHg 38%
    22:00 +7°C° 0 mm 9 mps 736 mmHg 38%
    23:00 +7°C° 0 mm 9 mps 736 mmHg 39%

    Day after tomorrow, 18 January, Friday

    Time Temperature Precipitation Wind Pressure Humidity
    00:00 +7°C° 0 mm 10 mps 735 mmHg 37%
    01:00 +7°C° 0 mm 10 mps 735 mmHg 36%
    02:00 +7°C° 0 mm 10 mps 735 mmHg 35%
    03:00 +7°C° 0 mm 10 mps 734 mmHg 33%
    04:00 +7°C° 0 mm 10 mps 734 mmHg 32%
    05:00 +7°C° 0 mm 11 mps 733 mmHg 30%
    06:00 +7°C° 0 mm 11 mps 733 mmHg 28%
    07:00 +7°C° 0 mm 11 mps 732 mmHg 27%
    08:00 +7°C° 0 mm 11 mps 732 mmHg 26%
    09:00 +8°C° 0 mm 12 mps 732 mmHg 23%
    10:00 +9°C° 0 mm 12 mps 731 mmHg 21%
    11:00 +10°C° 0 mm 12 mps 731 mmHg 18%
    12:00 +10°C° 0 mm 12 mps 731 mmHg 17%
    13:00 +12°C° 0 mm 11 mps 730 mmHg 16%
    14:00 +12°C° 0 mm 10 mps 730 mmHg 15%
    15:00 +12°C° 0 mm 8 mps 730 mmHg 17%
    16:00 +11°C° 0 mm 7 mps 731 mmHg 19%
    17:00 +10°C° 0 mm 5 mps 731 mmHg 21%
    18:00 +11°C° 0.4 mm 4 mps 732 mmHg 31%
    19:00 +10°C° 0.4 mm 3 mps 733 mmHg 41%
    20:00 +10°C° 0.4 mm 1 mps 734 mmHg 51%
    21:00 +9°C° 0.3 mm 2 mps 734 mmHg 53%
    22:00 +9°C° 0.3 mm 2 mps 735 mmHg 54%
    23:00 +9°C° 0.3 mm 2 mps 736 mmHg 55%

    19 January, Saturday

    Time Temperature Precipitation Wind Pressure Humidity
    00:00 +9°C° 0.1 mm 2 mps 736 mmHg 60%
    01:00 +9°C° 0.1 mm 2 mps 737 mmHg 65%
    02:00 +9°C° 0.1 mm 2 mps 737 mmHg 70%
    03:00 +9°C° 0 mm 2 mps 737 mmHg 73%
    04:00 +9°C° 0 mm 1 mps 737 mmHg 76%
    05:00 +9°C° 0 mm 1 mps 737 mmHg 79%
    06:00 +9°C° 0 mm 1 mps 737 mmHg 80%
    07:00 +8°C° 0 mm 1 mps 738 mmHg 81%
    08:00 +8°C° 0 mm 1 mps 738 mmHg 82%
    09:00 +9°C° 0 mm 1 mps 738 mmHg 73%
    10:00 +9°C° 0 mm 2 mps 738 mmHg 64%
    11:00 +12°C° 0 mm 2 mps 737 mmHg 55%
    12:00 +13°C° 0 mm 2 mps 737 mmHg 48%
    13:00 +13°C° 0 mm 2 mps 737 mmHg 41%
    14:00 +14°C° 0 mm 2 mps 736 mmHg 34%
    15:00 +14°C° 0 mm 2 mps 737 mmHg 38%
    16:00 +13°C° 0 mm 1 mps 737 mmHg 41%
    17:00 +13°C° 0 mm 1 mps 737 mmHg 44%
    18:00 +12°C° 0 mm 1 mps 737 mmHg 48%
    19:00 +11°C° 0 mm 1 mps 737 mmHg 53%
    20:00 +9°C° 0 mm 0 mps 737 mmHg 57%
    21:00 +9°C° 0 mm 1 mps 737 mmHg 60%
    22:00 +9°C° 0 mm 1 mps 736 mmHg 64%
    23:00 +8°C° 0 mm 1 mps 736 mmHg 67%

    20 January, Sunday

    Time Temperature Precipitation Wind Pressure Humidity
    00:00 +7°C° 0 mm 2 mps 736 mmHg 72%
    01:00 +6°C° 0 mm 2 mps 736 mmHg 77%
    02:00 +5°C° 0 mm 3 mps 736 mmHg 82%
    03:00 +5°C° 0 mm 3 mps 736 mmHg 81%
    04:00 +5°C° 0 mm 3 mps 736 mmHg 80%
    05:00 +5°C° 0 mm 3 mps 737 mmHg 79%
    06:00 +4°C° 0.1 mm 3 mps 737 mmHg 80%
    07:00 +4°C° 0.1 mm 3 mps 738 mmHg 81%
    08:00 +3°C° 0.1 mm 3 mps 738 mmHg 82%
    09:00 +4°C° 0.3 mm 3 mps 738 mmHg 81%
    10:00 +4°C° 0.3 mm 3 mps 738 mmHg 80%
    11:00 +4°C° 0.3 mm 3 mps 739 mmHg 80%
    12:00 +4°C° 0.6 mm 3 mps 739 mmHg 78%
    13:00 +4°C° 0.6 mm 3 mps 739 mmHg 76%
    14:00 +4°C° 0.6 mm 3 mps 739 mmHg 75%
    15:00 +4°C° 0.4 mm 3 mps 739 mmHg 74%
    16:00 +4°C° 0.4 mm 3 mps 739 mmHg 73%
    17:00 +3°C° 0.4 mm 3 mps 739 mmHg 72%
    18:00 +3°C° 0.2 mm 3 mps 740 mmHg 75%
    19:00 +3°C° 0.2 mm 3 mps 741 mmHg 77%
    20:00 +2°C° 0.2 mm 3 mps 741 mmHg 80%
    21:00 +2°C° 0 mm 3 mps 742 mmHg 79%
    22:00 +2°C° 0 mm 3 mps 742 mmHg 79%
    23:00 +2°C° 0 mm 3 mps 742 mmHg 79%

    21 January, Monday

    Time Temperature Precipitation Wind Pressure Humidity
    00:00 +2°C° 0 mm 2 mps 742 mmHg 79%
    01:00 +2°C° 0 mm 2 mps 743 mmHg 79%
    02:00 +2°C° 0 mm 2 mps 743 mmHg 79%
    03:00 +2°C° 0 mm 2 mps 743 mmHg 79%
    04:00 +3°C° 0 mm 1 mps 743 mmHg 78%
    05:00 +2°C° 0 mm 1 mps 743 mmHg 78%
    06:00 +2°C° 0 mm 1 mps 743 mmHg 78%
    07:00 +2°C° 0 mm 1 mps 743 mmHg 79%
    08:00 +1°C° 0 mm 0 mps 744 mmHg 80%
    09:00 +2°C° 0 mm 0 mps 743 mmHg 77%
    10:00 +3°C° 0 mm 0 mps 743 mmHg 74%
    11:00 +3°C° 0 mm 0 mps 743 mmHg 71%
    12:00 +4°C° 0 mm 0 mps 742 mmHg 68%
    13:00 +6°C° 0 mm 1 mps 742 mmHg 66%
    14:00 +6°C° 0 mm 1 mps 741 mmHg 64%
    15:00 +6°C° 0 mm 1 mps 741 mmHg 65%
    16:00 +6°C° 0 mm 1 mps 741 mmHg 66%
    17:00 +6°C° 0 mm 1 mps 741 mmHg 67%
    18:00 +5°C° 0 mm 1 mps 741 mmHg 70%
    19:00 +5°C° 0 mm 1 mps 741 mmHg 73%
    20:00 +4°C° 0 mm 1 mps 741 mmHg 76%
    21:00 +4°C° 0 mm 1 mps 741 mmHg 78%
    22:00 +3°C° 0 mm 1 mps 741 mmHg 80%
    23:00 +3°C° 0 mm 1 mps 741 mmHg 82%
    Show more